Regional Weather Roundup
Issued by NWS

Home | Current Version | Previous Version | Graphics & Text | Print | Product List | Glossary On
Versions: 1 2 3 4 5 6 7 8 9 10 11 12 13 14 15 16 17 18 19 20 21 22 23 24 25 26 27 28 29 30 31 32 33 34 35 36 37 38 39 40 41 42 43 44 45 46 47 48 49 50
000
ASUS43 KBIS 051101
RWRND

NORTH DAKOTA REGIONAL WEATHER ROUNDUP
NATIONAL WEATHER SERVICE BISMARCK ND
600 AM CDT TUE MAY 05 2015

NOTE: "FAIR" INDICATES FEW OR NO CLOUDS BELOW 12,000 FEET WITH NO
SIGNIFICANT WEATHER AND/OR OBSTRUCTIONS TO VISIBILITY.


NDZ001>003-009>011-017-051200-
NORTHWEST NORTH DAKOTA

CITY           SKY/WX    TMP DP  RH WIND       PRES   REMARKS
WILLISTON      CLEAR     50  27  40 SW6       29.96F
MINOT          CLOUDY    54  28  36 SE15G29   30.03F
MINOT AFB      MOCLDY    51  31  44 SE13      30.02F
$$

NDZ018>021-031>035-040>046-051200-
SOUTHWEST NORTH DAKOTA

CITY           SKY/WX    TMP DP  RH WIND       PRES   REMARKS
BISMARCK       PTCLDY    51  28  41 SE13      30.07F
DICKINSON      CLEAR     40  27  59 SE5       29.98F
GARRISON         N/A     53  31  42 SE13      30.03F
HETTINGER ARPT PTCLDY    44  29  55 SE7       30.02S
$$

NDZ004>008-012>016-024-026-027-054-051200-
NORTHEAST NORTH DAKOTA

CITY           SKY/WX    TMP DP  RH WIND       PRES   REMARKS
GRAND FORKS    CLEAR     40  25  55 SE7       30.16S
GRND FRKS AFB  CLEAR     38  24  58 SE6       30.15S HAZE
DEVILS LAKE    CLOUDY    54  30  40 S12       30.12F
$$

NDZ022-023-025-028>030-036>039-047>053-051200-
SOUTHEAST NORTH DAKOTA

CITY           SKY/WX    TMP DP  RH WIND       PRES   REMARKS
FARGO          FAIR      47  29  49 SE8       30.17S
JAMESTOWN      PTCLDY    48  29  47 SE12      30.14S
$$




USA.gov is the U.S. government's official web portal to all federal, state and local government web resources and services.